When you browse on this site, cookies collect data to enhance your experience and personalize the content and advertising you see.
Visit our Privacy Policy to learn more. By continuing to use the site, you agree to this use of cookies and data.
EN

Hourly Weather Godziszewo

Today, 23 September, Wednesday

Time Temperature Precipitation Wind Pressure Humidity
00:00 +17°C° 0 mm 4 mps 750 mmHg 64%
01:00 +17°C° 0 mm 3 mps 750 mmHg 66%
02:00 +16°C° 0 mm 3 mps 749 mmHg 69%
03:00 +16°C° 0 mm 3 mps 749 mmHg 72%
04:00 +14°C° 0 mm 3 mps 749 mmHg 74%
05:00 +16°C° 0 mm 3 mps 749 mmHg 73%
06:00 +16°C° 0 mm 3 mps 749 mmHg 72%
07:00 +17°C° 0 mm 3 mps 749 mmHg 71%
08:00 +19°C° 0 mm 4 mps 749 mmHg 65%
09:00 +21°C° 0 mm 4 mps 749 mmHg 58%
10:00 +23°C° 0 mm 4 mps 748 mmHg 52%
11:00 +25°C° 0 mm 4 mps 748 mmHg 48%
12:00 +26°C° 0 mm 4 mps 748 mmHg 45%
13:00 +27°C° 0 mm 5 mps 748 mmHg 42%
14:00 +27°C° 0 mm 4 mps 748 mmHg 43%
15:00 +26°C° 0 mm 3 mps 748 mmHg 45%
16:00 +26°C° 0 mm 3 mps 747 mmHg 47%
17:00 +25°C° 0 mm 3 mps 747 mmHg 51%
18:00 +22°C° 0 mm 3 mps 747 mmHg 56%
19:00 +20°C° 0 mm 3 mps 747 mmHg 61%
20:00 +19°C° 0 mm 3 mps 747 mmHg 63%
21:00 +19°C° 0 mm 2 mps 747 mmHg 65%
22:00 +18°C° 0 mm 2 mps 747 mmHg 67%
23:00 +18°C° 0 mm 2 mps 747 mmHg 70%

Tomorrow, 24 September, Thursday

Time Temperature Precipitation Wind Pressure Humidity
00:00 +17°C° 0 mm 2 mps 747 mmHg 73%
01:00 +17°C° 0 mm 2 mps 747 mmHg 76%
02:00 +17°C° 0 mm 3 mps 747 mmHg 79%
03:00 +16°C° 0 mm 3 mps 746 mmHg 82%
04:00 +16°C° 0 mm 3 mps 746 mmHg 85%
05:00 +16°C° 0.1 mm 3 mps 746 mmHg 84%
06:00 +17°C° 0.1 mm 3 mps 746 mmHg 83%
07:00 +17°C° 0.1 mm 4 mps 746 mmHg 82%
08:00 +19°C° 0.1 mm 4 mps 747 mmHg 77%
09:00 +20°C° 0.1 mm 4 mps 747 mmHg 72%
10:00 +22°C° 0.1 mm 4 mps 747 mmHg 67%
11:00 +23°C° 0 mm 4 mps 747 mmHg 60%
12:00 +25°C° 0 mm 5 mps 747 mmHg 52%
13:00 +26°C° 0 mm 5 mps 747 mmHg 45%
14:00 +25°C° 0 mm 4 mps 747 mmHg 48%
15:00 +25°C° 0 mm 3 mps 747 mmHg 51%
16:00 +25°C° 0 mm 2 mps 747 mmHg 54%
17:00 +23°C° 0 mm 2 mps 747 mmHg 60%
18:00 +21°C° 0 mm 1 mps 747 mmHg 66%
19:00 +19°C° 0 mm 1 mps 747 mmHg 73%
20:00 +19°C° 0.2 mm 1 mps 747 mmHg 76%
21:00 +18°C° 0.2 mm 1 mps 747 mmHg 79%
22:00 +18°C° 0.2 mm 1 mps 747 mmHg 83%
23:00 +17°C° 0 mm 2 mps 747 mmHg 83%

Day after tomorrow, 25 September, Friday

Time Temperature Precipitation Wind Pressure Humidity
00:00 +16°C° 0 mm 2 mps 747 mmHg 83%
01:00 +16°C° 0 mm 2 mps 747 mmHg 83%
02:00 +16°C° 0 mm 2 mps 747 mmHg 83%
03:00 +15°C° 0 mm 2 mps 746 mmHg 84%
04:00 +15°C° 0 mm 2 mps 746 mmHg 84%
05:00 +15°C° 0 mm 2 mps 745 mmHg 83%
06:00 +16°C° 0 mm 2 mps 745 mmHg 82%
07:00 +16°C° 0 mm 3 mps 744 mmHg 80%
08:00 +18°C° 0 mm 3 mps 744 mmHg 74%
09:00 +19°C° 0 mm 4 mps 743 mmHg 69%
10:00 +21°C° 0 mm 5 mps 743 mmHg 63%
11:00 +22°C° 0 mm 5 mps 742 mmHg 59%
12:00 +23°C° 0 mm 6 mps 742 mmHg 56%
13:00 +24°C° 0 mm 6 mps 741 mmHg 53%
14:00 +24°C° 0.2 mm 6 mps 740 mmHg 56%
15:00 +23°C° 0.2 mm 6 mps 740 mmHg 59%
16:00 +23°C° 0.2 mm 6 mps 739 mmHg 62%
17:00 +21°C° 0.6 mm 6 mps 739 mmHg 69%
18:00 +20°C° 0.6 mm 5 mps 739 mmHg 76%
19:00 +17°C° 0.6 mm 5 mps 739 mmHg 83%
20:00 +18°C° 0 mm 4 mps 739 mmHg 85%
21:00 +17°C° 0 mm 4 mps 740 mmHg 86%
22:00 +17°C° 0 mm 4 mps 740 mmHg 87%
23:00 +17°C° 0.1 mm 4 mps 740 mmHg 87%

26 September, Saturday

Time Temperature Precipitation Wind Pressure Humidity
00:00 +16°C° 0.1 mm 3 mps 741 mmHg 87%
01:00 +14°C° 0.1 mm 3 mps 741 mmHg 87%
02:00 +14°C° 0 mm 3 mps 741 mmHg 85%
03:00 +14°C° 0 mm 3 mps 741 mmHg 84%
04:00 +13°C° 0 mm 3 mps 741 mmHg 82%
05:00 +13°C° 0 mm 3 mps 742 mmHg 82%
06:00 +13°C° 0 mm 3 mps 742 mmHg 81%
07:00 +13°C° 0 mm 3 mps 742 mmHg 81%
08:00 +14°C° 0 mm 3 mps 742 mmHg 78%
09:00 +15°C° 0 mm 4 mps 742 mmHg 74%
10:00 +16°C° 0 mm 5 mps 742 mmHg 71%
11:00 +15°C° 0.3 mm 5 mps 742 mmHg 75%
12:00 +15°C° 0.3 mm 5 mps 742 mmHg 80%
13:00 +14°C° 0.3 mm 6 mps 742 mmHg 84%
14:00 +14°C° 0.8 mm 6 mps 741 mmHg 87%
15:00 +15°C° 0.8 mm 6 mps 741 mmHg 89%
16:00 +15°C° 0.8 mm 6 mps 741 mmHg 92%
17:00 +15°C° 0.9 mm 5 mps 741 mmHg 93%
18:00 +15°C° 0.9 mm 5 mps 741 mmHg 93%
19:00 +17°C° 0.9 mm 4 mps 741 mmHg 94%
20:00 +17°C° 1 mm 3 mps 741 mmHg 95%
21:00 +17°C° 1 mm 3 mps 741 mmHg 95%
22:00 +17°C° 1 mm 2 mps 741 mmHg 95%
23:00 +17°C° 0.8 mm 2 mps 740 mmHg 95%

27 September, Sunday

Time Temperature Precipitation Wind Pressure Humidity
00:00 +17°C° 0.8 mm 2 mps 740 mmHg 95%
01:00 +17°C° 0.8 mm 2 mps 740 mmHg 95%
02:00 +17°C° 0.1 mm 2 mps 740 mmHg 91%
03:00 +17°C° 0.1 mm 3 mps 740 mmHg 86%
04:00 +17°C° 0.1 mm 3 mps 739 mmHg 82%
05:00 +17°C° 0 mm 4 mps 740 mmHg 80%
06:00 +17°C° 0 mm 4 mps 740 mmHg 78%
07:00 +17°C° 0 mm 4 mps 740 mmHg 75%
08:00 +18°C° 0 mm 4 mps 740 mmHg 73%
09:00 +19°C° 0 mm 4 mps 740 mmHg 70%
10:00 +20°C° 0 mm 4 mps 740 mmHg 67%
11:00 +19°C° 0 mm 4 mps 741 mmHg 68%
12:00 +19°C° 0 mm 4 mps 741 mmHg 69%
13:00 +19°C° 0 mm 4 mps 741 mmHg 70%
14:00 +19°C° 0.1 mm 4 mps 741 mmHg 72%
15:00 +19°C° 0.1 mm 3 mps 741 mmHg 74%
16:00 +18°C° 0.1 mm 3 mps 741 mmHg 76%
17:00 +18°C° 0.2 mm 3 mps 741 mmHg 78%
18:00 +17°C° 0.2 mm 4 mps 741 mmHg 80%
19:00 +17°C° 0.2 mm 4 mps 741 mmHg 82%
20:00 +17°C° 0.2 mm 3 mps 741 mmHg 83%
21:00 +17°C° 0.2 mm 3 mps 741 mmHg 85%
22:00 +17°C° 0.2 mm 3 mps 741 mmHg 86%
23:00 +16°C° 0 mm 3 mps 741 mmHg 85%

28 September, Monday

Time Temperature Precipitation Wind Pressure Humidity
00:00 +16°C° 0 mm 3 mps 741 mmHg 84%
01:00 +14°C° 0 mm 4 mps 741 mmHg 83%
02:00 +15°C° 0 mm 4 mps 741 mmHg 84%
03:00 +15°C° 0 mm 4 mps 741 mmHg 85%
04:00 +15°C° 0 mm 5 mps 741 mmHg 85%
05:00 +14°C° 0 mm 4 mps 741 mmHg 84%
06:00 +13°C° 0 mm 4 mps 741 mmHg 83%
07:00 +12°C° 0 mm 4 mps 741 mmHg 82%
08:00 +12°C° 0 mm 4 mps 742 mmHg 77%
09:00 +13°C° 0 mm 5 mps 742 mmHg 73%
10:00 +13°C° 0 mm 5 mps 742 mmHg 69%
11:00 +13°C° 0 mm 5 mps 743 mmHg 68%
12:00 +13°C° 0 mm 5 mps 743 mmHg 68%
13:00 +12°C° 0 mm 5 mps 743 mmHg 67%
14:00 +12°C° 0 mm 5 mps 744 mmHg 66%
15:00 +12°C° 0 mm 4 mps 744 mmHg 66%
16:00 +12°C° 0 mm 4 mps 744 mmHg 65%
17:00 +12°C° 0 mm 4 mps 745 mmHg 66%
18:00 +12°C° 0 mm 4 mps 745 mmHg 67%
19:00 +11°C° 0 mm 4 mps 745 mmHg 68%
20:00 +11°C° 0 mm 3 mps 745 mmHg 70%
21:00 +10°C° 0 mm 3 mps 745 mmHg 71%
22:00 +10°C° 0 mm 3 mps 746 mmHg 73%
23:00 +10°C° 0 mm 3 mps 746 mmHg 75%
Show more